Tracking 19706 objects as of 16-Jun-2019
HD Live streaming from Space Station
objects crossing your sky now

SL-3 R/B

Track SL-3 R/B now!
10-day predictions


NORAD ID: 13121
Int'l Code: 1982-027B
Perigee: 525.4 km
Apogee: 569.0 km
Inclination: 81.2 °
Period: 95.4 minutes
Semi major axis: 6918 km
RCS: 5.6899 m2 (large)
Launch date: March 31, 1982
Source: Commonwealth of Independent States (former USSR) (CIS)
Launch site: PLESETSK MISSILE AND SPACE COMPLEX (PKMTR)

Note: This is a ROCKET BODY
aabbcc
Your satellite tracking list
Your tracking list is empty




NASA's NSSDC Master Catalog

Two Line Element Set (TLE):
1 13121U 82027B   19166.69654674  .00000716  00000-0  43638-4 0  9999
2 13121  81.1671   1.9687 0031509 279.9986  79.7683 15.08748800 26822
Source of the keplerian elements: AFSPC